TimeCST,TemperatureF,Dew PointF,Humidity,Sea Level PressureIn,VisibilityMPH,Wind Direction,Wind SpeedMPH,Gust SpeedMPH,PrecipitationIn,Events,Conditions,WindDirDegrees,DateUTC
12:53 AM,28.9,27.0,92,29.94,10.0,NW,3.5,-,N/A,,Clear,320,2013-11-14 06:53:00
1:53 AM,30.9,28.9,92,29.93,10.0,Calm,Calm,-,N/A,,Clear,0,2013-11-14 07:53:00
2:53 AM,28.9,27.0,92,29.94,10.0,Calm,Calm,-,N/A,,Clear,0,2013-11-14 08:53:00
3:53 AM,30.9,28.9,92,29.93,10.0,NNW,5.8,-,N/A,,Clear,330,2013-11-14 09:53:00
4:53 AM,33.1,30.0,89,29.93,10.0,NNW,6.9,-,N/A,,Clear,330,2013-11-14 10:53:00
5:53 AM,37.0,33.1,86,29.96,10.0,NW,8.1,-,N/A,,Clear,320,2013-11-14 11:53:00
6:53 AM,37.9,33.1,83,29.99,10.0,NNW,9.2,-,N/A,,Clear,330,2013-11-14 12:53:00
7:53 AM,39.0,34.0,82,30.00,10.0,NNW,8.1,-,N/A,,Clear,330,2013-11-14 13:53:00
8:53 AM,46.0,39.0,76,30.01,10.0,NNW,9.2,-,N/A,,Clear,330,2013-11-14 14:53:00
9:53 AM,50.0,39.9,68,30.01,10.0,North,8.1,-,N/A,,Scattered Clouds,350,2013-11-14 15:53:00
10:53 AM,52.0,39.9,63,30.00,10.0,North,9.2,-,N/A,,Overcast,350,2013-11-14 16:53:00
11:53 AM,52.0,39.0,61,29.99,10.0,NNW,11.5,-,N/A,,Overcast,340,2013-11-14 17:53:00
12:53 PM,55.9,37.0,49,29.96,10.0,NNW,11.5,-,N/A,,Clear,340,2013-11-14 18:53:00
1:53 PM,57.0,34.0,42,29.93,10.0,NW,12.7,-,N/A,,Clear,310,2013-11-14 19:53:00
2:53 PM,57.9,33.1,39,29.92,10.0,NW,6.9,-,N/A,,Clear,310,2013-11-14 20:53:00
3:53 PM,57.9,30.9,36,29.91,10.0,NW,8.1,-,N/A,,Clear,310,2013-11-14 21:53:00
4:53 PM,51.1,30.9,46,29.92,10.0,WNW,5.8,-,N/A,,Clear,300,2013-11-14 22:53:00
5:53 PM,39.0,28.9,67,29.93,10.0,Calm,Calm,-,N/A,,Clear,0,2013-11-14 23:53:00
6:53 PM,34.0,27.0,75,29.95,10.0,Calm,Calm,-,N/A,,Clear,0,2013-11-15 00:53:00
7:53 PM,30.0,26.1,85,29.96,10.0,SSW,3.5,-,N/A,,Clear,200,2013-11-15 01:53:00
8:53 PM,30.0,26.1,85,29.94,10.0,Calm,Calm,-,N/A,,Clear,0,2013-11-15 02:53:00
9:53 PM,27.0,24.1,89,29.94,9.0,SW,3.5,-,N/A,,Clear,230,2013-11-15 03:53:00
10:53 PM,28.0,25.0,88,29.92,10.0,Calm,Calm,-,N/A,,Clear,0,2013-11-15 04:53:00
11:53 PM,26.1,23.0,88,29.91,4.0,Calm,Calm,-,N/A,,Clear,0,2013-11-15 05:53:00